EST,Max TemperatureF,Mean TemperatureF,Min TemperatureF,Max Dew PointF,MeanDew PointF,Min DewpointF,Max Humidity, Mean Humidity, Min Humidity, Max Sea Level PressureIn, Mean Sea Level PressureIn, Min Sea Level PressureIn, Max VisibilityMiles, Mean VisibilityMiles, Min VisibilityMiles, Max Wind SpeedMPH, Mean Wind SpeedMPH, Max Gust SpeedMPH,PrecipitationIn, CloudCover, Events, WindDirDegrees
2011-12-1,75,63,51,63,57,51,100,77,53,30.18,30.10,30.03,10,10,10,21,11,26,T,4,Rain,357
2011-12-2,77,73,68,67,57,52,84,65,46,30.26,30.22,30.17,10,10,10,22,13,29,0.02,5,Rain,45
2011-12-3,77,74,71,64,57,53,73,63,53,30.29,30.25,30.22,10,10,10,24,17,31,0.00,6,,69
2011-12-4,79,76,73,66,63,57,79,68,57,30.22,30.16,30.12,10,10,10,24,18,31,0.00,5,,79
2011-12-5,79,76,73,64,62,57,73,61,48,30.15,30.10,30.06,10,10,10,24,14,31,0.00,4,,87
2011-12-6,79,74,68,65,63,59,73,66,58,30.12,30.07,30.03,10,10,10,15,8,17,0.00,5,,85
2011-12-7,82,73,63,70,65,55,100,81,62,30.09,30.02,29.94,10,10,10,26,7,30,T,5,,273
2011-12-8,74,66,58,66,59,48,80,72,64,30.14,30.08,30.04,10,10,10,16,11,21,T,5,Rain,15
2011-12-9,76,75,73,72,70,66,87,83,79,30.13,30.08,30.05,10,10,2,18,12,22,0.08,7,Rain,72
2011-12-10,80,77,73,72,70,68,93,82,71,30.13,30.09,30.05,10,10,10,20,12,23,0.01,6,Rain,80
2011-12-11,80,77,74,71,68,64,87,77,67,30.14,30.11,30.07,10,10,10,24,15,29,T,6,,78
2011-12-12,80,75,69,72,69,67,100,87,74,30.16,30.12,30.08,10,10,3,20,9,23,0.25,6,Rain,82
2011-12-13,80,77,73,70,66,61,93,76,58,30.23,30.18,30.13,10,10,10,22,15,29,0.01,5,Rain,56
2011-12-14,77,74,70,66,61,57,84,69,54,30.25,30.21,30.17,10,10,10,24,15,31,T,4,Rain,68
2011-12-15,78,75,71,64,61,57,73,64,54,30.21,30.17,30.13,10,10,10,20,14,25,0.00,6,,87
2011-12-16,79,74,69,70,65,59,100,80,60,30.19,30.16,30.13,10,10,6,18,9,23,0.03,6,Rain,92
2011-12-17,73,69,64,70,67,62,100,90,79,30.18,30.14,30.11,10,10,7,12,3,14,0.04,7,Rain,270
2011-12-18,76,68,60,62,58,53,97,73,49,30.23,30.17,30.13,10,10,10,20,10,25,0.00,2,,3
2011-12-19,74,71,68,57,54,52,61,55,49,30.27,30.22,30.18,10,10,10,24,15,26,0.00,5,,96
2011-12-20,78,74,70,61,58,55,66,61,56,30.21,30.17,30.13,10,10,10,22,14,26,0.00,5,,134
2011-12-21,79,75,71,66,61,57,79,67,54,30.18,30.12,30.08,10,10,10,23,13,28,0.00,3,,144
2011-12-22,80,75,70,68,66,64,84,73,62,30.17,30.12,30.09,10,10,10,21,10,25,T,3,,143
2011-12-23,81,74,66,70,68,65,100,81,62,30.19,30.14,30.10,10,10,10,13,4,17,T,4,,132
2011-12-24,80,75,69,70,68,65,97,80,62,30.23,30.19,30.14,10,10,4,13,5,18,0.26,4,Rain,81
2011-12-25,81,75,69,70,68,66,90,79,67,30.25,30.20,30.16,10,10,10,16,8,20,0.00,4,,113
2011-12-26,81,72,63,68,66,62,100,81,62,30.19,30.14,30.10,10,10,10,12,4,16,0.00,4,,80
2011-12-27,82,75,67,70,66,62,100,76,51,30.08,30.01,29.94,10,9,2,20,10,28,0.20,5,Rain,227
2011-12-28,67,60,53,61,49,43,93,74,55,30.17,30.10,30.04,10,10,10,23,10,29,0.00,2,,333
2011-12-29,72,62,51,56,50,41,80,67,53,30.15,30.09,30.05,10,10,10,9,5,12,0.00,4,,319
2011-12-30,77,65,53,59,56,52,100,73,46,30.16,30.11,30.06,10,10,10,9,3,14,0.00,1,,307
2011-12-31,80,69,57,60,57,53,93,68,42,30.21,30.16,30.12,10,10,10,13,3,17,0.00,1,,283